Location: Fort Wayne
(41.1310°N, 85.1290°W)
Time: 14:11:09
(UTC-04:00)

Vanguard 3 - Visible Passes

Search period start: 30 October 2014 00:00
Search period end: 08 November 2014 23:00
Orbit: 508 x 3278 km, 33.3° (Epoch: 29 October)

Date Brightness Start Highest point End Pass type
(mag) Time Alt. Az. Time Alt. Az. Time Alt. Az.
30 Oct 10.1 20:28:06 10° SSW 20:41:35 27° SSE 20:45:37 24° SE visible
30 Oct 10.1 22:41:18 10° SW 22:50:23 33° SSW 22:50:23 33° SSW visible
31 Oct 10.6 19:16:36 10° S 19:28:02 20° SE 19:37:23 10° ESE visible
31 Oct 9.7 21:27:01 10° SW 21:42:30 40° SSE 21:42:36 40° SSE visible
31 Oct 10.6 23:42:35 10° WSW 23:47:21 22° WSW 23:47:21 22° WSW visible
01 Nov 10.0 20:13:34 10° SSW 20:28:55 32° SSE 20:34:47 25° ESE visible
01 Nov 9.8 22:27:37 10° WSW 22:39:32 43° SSW 22:39:32 43° SSW visible
02 Nov 10.6 18:01:26 10° S 18:15:11 24° SE 18:26:23 10° E visible
02 Nov 9.6 20:13:04 10° SW 20:29:53 46° SSE 20:31:41 44° SE visible
02 Nov 10.4 22:29:12 10° WSW 22:36:25 29° WSW 22:36:25 29° WSW visible
03 Nov 10.1 18:59:19 10° SSW 19:16:06 38° SSE 19:23:48 24° ESE visible
03 Nov 9.6 21:14:01 10° WSW 21:28:32 52° SSW 21:28:32 52° SSW visible
03 Nov 11.0 23:31:14 10° W 23:33:16 15° W 23:33:16 15° W visible
04 Nov 10.6 17:46:48 10° SSW 18:02:12 29° SE 18:14:54 10° E visible
04 Nov 9.6 19:59:16 10° SW 20:17:10 51° SSE 20:20:36 45° SE visible
04 Nov 10.2 22:15:49 10° WSW 22:25:20 37° WSW 22:25:20 37° WSW visible
05 Nov 10.1 18:45:21 10° SW 19:03:10 43° SSE 19:12:39 23° ESE visible
05 Nov 9.5 21:00:29 10° WSW 21:17:22 59° S 21:17:22 59° S visible
05 Nov 10.8 23:18:00 10° W 23:22:06 20° W 23:22:06 20° W visible
06 Nov 10.7 17:32:34 10° SSW 17:49:05 34° SSE 18:03:07 10° E visible
06 Nov 9.6 19:45:37 10° SW 20:04:21 56° SSE 20:09:23 43° ESE visible
06 Nov 10.0 22:02:27 10° W 22:14:06 44° WSW 22:14:06 44° WSW visible
07 Nov 10.2 18:31:36 10° SW 18:50:07 48° SSE 19:01:21 20° E visible
07 Nov 9.4 20:47:02 10° WSW 21:05:35 63° S 21:06:05 63° SSE visible
07 Nov 10.6 23:04:44 10° W 23:10:48 25° W 23:10:48 25° W visible
08 Nov 9.7 19:32:08 10° WSW 19:51:25 60° SSE 19:58:02 40° ESE visible
08 Nov 9.8 21:49:05 10° W 22:02:45 51° SW 22:02:45 51° SW visible
